FWV9 LYTV-LESO

Flight info

Callsign FWV9
Flight time 2h 27m
Altitude 34000
Route TIBRI DCT XOLTA DCT GITOD/N0455F350 DCT MIRSA/N0455F340 A3 STP DCT FJR/N0454F350 DCT SURUD DCT URUNA P181 SSN
Aircraft A320/M-SDE3FGHIRWY/LB1

Departure

Time 2026-05-04 13:56
Airport Tivat Airport (LYTV)

Arrival

Time 2026-05-04 16:24
Airport San Sebastián Airport (LESO)
Time Latitude Longitude Altitude Speed Heading
2026-05-04 13:28 42.41115 18.71800 10 ft 0 kts 150°
2026-05-04 13:50 42.41106 18.71797 12 ft 1 kts 199°
2026-05-04 13:50 42.41099 18.71790 18 ft 2 kts 215°
2026-05-04 13:50 42.41088 18.71780 18 ft 2 kts 207°
2026-05-04 13:50 42.41081 18.71784 15 ft 1 kts 158°
2026-05-04 13:51 42.41080 18.71787 15 ft 0 kts 137°
2026-05-04 13:51 42.41071 18.71798 16 ft 4 kts 136°
2026-05-04 13:51 42.41053 18.71822 15 ft 6 kts 135°
2026-05-04 13:51 42.40999 18.71848 15 ft 9 kts 205°
2026-05-04 13:52 42.40903 18.71814 17 ft 13 kts 142°
2026-05-04 13:52 42.40816 18.71917 15 ft 20 kts 139°
2026-05-04 13:52 42.40703 18.72052 15 ft 23 kts 139°
2026-05-04 13:53 42.40576 18.72201 14 ft 24 kts 139°
2026-05-04 13:53 42.40451 18.72349 14 ft 24 kts 139°
2026-05-04 13:53 42.40327 18.72493 16 ft 23 kts 139°
2026-05-04 13:54 42.40074 18.72794 16 ft 25 kts 139°
2026-05-04 13:54 42.39956 18.72935 16 ft 23 kts 139°
2026-05-04 13:54 42.39720 18.73215 17 ft 16 kts 141°
2026-05-04 13:55 42.39627 18.73255 16 ft 12 kts 154°
2026-05-04 13:55 42.39654 18.73291 17 ft 0 kts 318°
2026-05-04 13:55 42.39656 18.73289 17 ft 7 kts 318°
2026-05-04 13:56 42.39913 18.72984 16 ft 89 kts 319°
2026-05-04 13:56 42.40560 18.72220 17 ft 154 kts 319°
2026-05-04 13:56 42.42319 18.70181 1409 ft 167 kts 317°
2026-05-04 13:57 42.43138 18.69029 2067 ft 175 kts 300°
2026-05-04 13:57 42.43453 18.67983 2184 ft 190 kts 278°
2026-05-04 13:58 42.42197 18.61029 3212 ft 262 kts 254°
2026-05-04 13:58 42.41379 18.57010 4589 ft 266 kts 256°
2026-05-04 13:58 42.41171 18.54513 5323 ft 271 kts 276°
2026-05-04 13:59 42.41422 18.51965 6051 ft 275 kts 279°
2026-05-04 13:59 42.41715 18.49419 6786 ft 280 kts 280°
2026-05-04 13:59 42.42350 18.44167 8270 ft 286 kts 281°
2026-05-04 14:00 42.42671 18.41492 9003 ft 289 kts 281°
2026-05-04 14:00 42.43316 18.36050 10289 ft 303 kts 281°
2026-05-04 14:00 42.43658 18.33132 10439 ft 326 kts 280°
2026-05-04 14:01 42.44023 18.29994 10577 ft 348 kts 280°
2026-05-04 14:01 42.44399 18.26710 11000 ft 357 kts 280°
2026-05-04 14:01 42.45160 18.19986 12212 ft 365 kts 280°
2026-05-04 14:02 42.45546 18.16574 12839 ft 368 kts 280°
2026-05-04 14:02 42.45936 18.13142 13466 ft 371 kts 281°
2026-05-04 14:02 42.46329 18.09671 14080 ft 374 kts 281°
2026-05-04 14:02 42.46725 18.06177 14625 ft 376 kts 281°
2026-05-04 14:03 42.47123 18.02663 15179 ft 379 kts 281°
2026-05-04 14:03 42.47520 17.99126 15727 ft 381 kts 281°
2026-05-04 14:03 42.47912 17.95616 16266 ft 383 kts 281°
2026-05-04 14:03 42.48312 17.92034 16802 ft 385 kts 281°
2026-05-04 14:04 42.49114 17.84816 17842 ft 390 kts 281°
2026-05-04 14:04 42.49519 17.81166 18349 ft 392 kts 281°
2026-05-04 14:04 42.49925 17.77501 18790 ft 395 kts 281°
2026-05-04 14:05 42.50736 17.70099 19638 ft 399 kts 280°
2026-05-04 14:05 42.51142 17.66372 20077 ft 401 kts 280°
2026-05-04 14:05 42.51548 17.62616 20509 ft 403 kts 280°
2026-05-04 14:06 42.51953 17.58845 20930 ft 405 kts 280°
2026-05-04 14:06 42.52363 17.55055 21350 ft 407 kts 281°
2026-05-04 14:06 42.52779 17.51250 21760 ft 409 kts 281°
2026-05-04 14:06 42.53191 17.47428 22169 ft 411 kts 281°
2026-05-04 14:07 42.53604 17.43581 22564 ft 413 kts 281°
2026-05-04 14:07 42.54012 17.39772 22963 ft 415 kts 281°
2026-05-04 14:07 42.54426 17.35896 23363 ft 416 kts 280°
2026-05-04 14:07 42.54842 17.32006 23743 ft 418 kts 280°
2026-05-04 14:08 42.55255 17.28101 24074 ft 419 kts 280°
2026-05-04 14:08 42.55669 17.24181 24399 ft 420 kts 280°
2026-05-04 14:08 42.56079 17.20253 24718 ft 421 kts 280°
2026-05-04 14:08 42.56490 17.16315 25030 ft 423 kts 280°
2026-05-04 14:09 42.57312 17.08386 25650 ft 425 kts 280°
2026-05-04 14:09 42.57726 17.04402 25949 ft 426 kts 280°
2026-05-04 14:10 42.58553 16.96429 26591 ft 428 kts 280°
2026-05-04 14:10 42.58965 16.92421 26889 ft 429 kts 280°
2026-05-04 14:10 42.59374 16.88406 27183 ft 430 kts 280°
2026-05-04 14:10 42.59782 16.84381 27459 ft 431 kts 280°
2026-05-04 14:11 42.60193 16.80344 27732 ft 432 kts 280°
2026-05-04 14:11 42.61019 16.72237 28281 ft 434 kts 280°
2026-05-04 14:11 42.61424 16.68221 28526 ft 435 kts 280°
2026-05-04 14:12 42.61838 16.64105 28836 ft 435 kts 279°
2026-05-04 14:12 42.62238 16.60080 29089 ft 436 kts 279°
2026-05-04 14:12 42.62845 16.51873 29708 ft 436 kts 277°
2026-05-04 14:13 42.63062 16.47764 30074 ft 434 kts 276°
2026-05-04 14:13 42.63259 16.43687 30429 ft 432 kts 276°
2026-05-04 14:13 42.63456 16.39624 30722 ft 431 kts 276°
2026-05-04 14:13 42.63665 16.35571 30992 ft 430 kts 276°
2026-05-04 14:14 42.63890 16.31524 31231 ft 430 kts 276°
2026-05-04 14:14 42.64352 16.23426 31728 ft 430 kts 276°
2026-05-04 14:14 42.64581 16.19386 31992 ft 429 kts 276°
2026-05-04 14:15 42.65034 16.11314 32533 ft 428 kts 276°
2026-05-04 14:15 42.65475 16.03271 33070 ft 426 kts 276°
2026-05-04 14:16 42.65905 15.95254 33602 ft 424 kts 275°
2026-05-04 14:16 42.66119 15.91264 33890 ft 423 kts 275°
2026-05-04 14:17 42.66541 15.83307 34104 ft 421 kts 275°
2026-05-04 14:17 42.66745 15.79366 34103 ft 421 kts 275°
2026-05-04 14:18 42.67360 15.67470 34100 ft 421 kts 275°
2026-05-04 14:19 42.68155 15.51557 34098 ft 425 kts 274°
2026-05-04 14:19 42.68561 15.43529 34094 ft 426 kts 274°
2026-05-04 14:20 42.68953 15.35508 34094 ft 425 kts 274°
2026-05-04 14:20 42.69328 15.27523 34089 ft 426 kts 274°
2026-05-04 14:21 42.69890 15.15438 34075 ft 428 kts 274°
2026-05-04 14:21 42.70268 15.07351 34074 ft 429 kts 274°
2026-05-04 14:22 42.70640 14.99245 34074 ft 430 kts 274°
2026-05-04 14:22 42.71002 14.91126 34072 ft 431 kts 274°
2026-05-04 14:23 42.71531 14.78925 34074 ft 431 kts 274°
2026-05-04 14:24 42.71880 14.70794 34079 ft 431 kts 274°
2026-05-04 14:24 42.72227 14.62649 34077 ft 431 kts 274°
2026-05-04 14:25 42.72573 14.54498 34079 ft 432 kts 274°
2026-05-04 14:25 42.73068 14.42256 34084 ft 432 kts 274°
2026-05-04 14:26 42.73390 14.34089 34094 ft 432 kts 273°
2026-05-04 14:26 42.73707 14.25928 34097 ft 432 kts 273°
2026-05-04 14:27 42.74018 14.17821 34106 ft 430 kts 274°
2026-05-04 14:27 42.74320 14.09721 34118 ft 427 kts 274°
2026-05-04 14:28 42.74615 14.01717 34114 ft 425 kts 274°
2026-05-04 14:28 42.74905 13.93697 34111 ft 424 kts 274°
2026-05-04 14:29 42.75477 13.77710 34118 ft 421 kts 274°
2026-05-04 14:30 42.75747 13.69769 34116 ft 419 kts 274°
2026-05-04 14:31 42.76138 13.57897 34117 ft 418 kts 273°
2026-05-04 14:32 42.76642 13.42118 34126 ft 416 kts 273°
2026-05-04 14:32 42.76884 13.34335 34134 ft 413 kts 273°
2026-05-04 14:33 42.77122 13.26518 34130 ft 412 kts 273°
2026-05-04 14:33 42.77351 13.18734 34137 ft 412 kts 273°
2026-05-04 14:34 42.77572 13.10947 34125 ft 411 kts 273°
2026-05-04 14:34 42.77790 13.03187 34129 ft 410 kts 273°
2026-05-04 14:35 42.78007 12.95435 34127 ft 410 kts 273°
2026-05-04 14:35 42.78220 12.87683 34131 ft 409 kts 273°
2026-05-04 14:36 42.78426 12.79945 34120 ft 409 kts 273°
2026-05-04 14:36 42.78618 12.72272 34120 ft 408 kts 272°
2026-05-04 14:37 42.78812 12.64558 34129 ft 407 kts 272°
2026-05-04 14:37 42.79002 12.56856 34122 ft 406 kts 272°
2026-05-04 14:38 42.79178 12.49169 34126 ft 406 kts 272°
2026-05-04 14:38 42.79350 12.41476 34121 ft 406 kts 272°
2026-05-04 14:39 42.79524 12.33803 34128 ft 405 kts 272°
2026-05-04 14:39 42.79693 12.26160 34132 ft 403 kts 272°
2026-05-04 14:40 42.79933 12.14718 34133 ft 403 kts 272°
2026-05-04 14:40 42.80086 12.07102 34128 ft 402 kts 272°
2026-05-04 14:41 42.80225 11.99495 34134 ft 401 kts 272°
2026-05-04 14:42 42.80505 11.84410 34152 ft 396 kts 272°
2026-05-04 14:42 42.80636 11.76923 34151 ft 395 kts 272°
2026-05-04 14:43 42.80755 11.69515 34138 ft 394 kts 272°
2026-05-04 14:43 42.80869 11.62073 34145 ft 392 kts 271°
2026-05-04 14:44 42.80985 11.54658 34148 ft 391 kts 271°
2026-05-04 14:44 42.81099 11.47273 34144 ft 390 kts 272°
2026-05-04 14:45 42.81204 11.39898 34138 ft 389 kts 271°
2026-05-04 14:45 42.81300 11.32532 34133 ft 389 kts 271°
2026-05-04 14:46 42.81391 11.25184 34137 ft 388 kts 271°
2026-05-04 14:46 42.81478 11.17837 34152 ft 387 kts 271°
2026-05-04 14:47 42.81562 11.10515 34151 ft 386 kts 271°
2026-05-04 14:47 42.81641 11.03202 34148 ft 386 kts 271°
2026-05-04 14:48 42.81717 10.95931 34142 ft 386 kts 271°
2026-05-04 14:48 42.81789 10.88616 34132 ft 385 kts 271°
2026-05-04 14:49 42.81861 10.81321 34129 ft 386 kts 271°
2026-05-04 14:49 42.81921 10.74020 34123 ft 385 kts 270°
2026-05-04 14:50 42.81968 10.67952 34121 ft 385 kts 270°
2026-05-04 14:50 42.82027 10.59478 34114 ft 385 kts 270°
2026-05-04 14:51 42.82065 10.53361 34111 ft 385 kts 270°
2026-05-04 14:51 42.82104 10.46119 34106 ft 385 kts 270°
2026-05-04 14:52 42.82138 10.38837 34092 ft 384 kts 270°
2026-05-04 14:52 42.82169 10.31553 34091 ft 385 kts 270°
2026-05-04 14:53 42.82195 10.24273 34094 ft 385 kts 270°
2026-05-04 14:53 42.82220 10.16980 34101 ft 384 kts 269°
2026-05-04 14:54 42.82248 10.09707 34090 ft 384 kts 269°
2026-05-04 14:54 42.82267 10.02438 34096 ft 383 kts 269°
2026-05-04 14:55 42.82281 9.95169 34081 ft 383 kts 269°
2026-05-04 14:55 42.82290 9.87919 34080 ft 383 kts 269°
2026-05-04 14:56 42.82285 9.80681 34084 ft 382 kts 268°
2026-05-04 14:56 42.82492 9.73447 34081 ft 384 kts 277°
2026-05-04 14:57 42.83502 9.66305 34074 ft 384 kts 278°
2026-05-04 14:57 42.84488 9.59205 34071 ft 384 kts 277°
2026-05-04 14:58 42.85474 9.52059 34066 ft 384 kts 277°
2026-05-04 14:58 42.86460 9.44950 34077 ft 377 kts 277°
2026-05-04 14:59 42.87435 9.37848 34043 ft 383 kts 277°
2026-05-04 15:00 42.88893 9.27114 34030 ft 384 kts 277°
2026-05-04 15:00 42.89860 9.19955 34022 ft 384 kts 277°
2026-05-04 15:01 42.91320 9.09216 34018 ft 384 kts 277°
2026-05-04 15:01 42.92291 9.02041 34018 ft 386 kts 276°
2026-05-04 15:02 42.93259 8.94829 34017 ft 387 kts 276°
2026-05-04 15:02 42.94210 8.87653 34018 ft 387 kts 276°
2026-05-04 15:03 42.95146 8.80427 34020 ft 387 kts 276°
2026-05-04 15:03 42.96127 8.73193 34022 ft 388 kts 277°
2026-05-04 15:04 42.97189 8.65964 34038 ft 388 kts 277°
2026-05-04 15:04 42.98248 8.58737 34037 ft 388 kts 277°
2026-05-04 15:05 42.99286 8.51500 34035 ft 388 kts 276°
2026-05-04 15:05 43.00308 8.44267 34036 ft 388 kts 276°
2026-05-04 15:06 43.01304 8.37028 34033 ft 386 kts 273°
2026-05-04 15:07 43.02086 8.26109 34040 ft 386 kts 273°
2026-05-04 15:07 43.02976 8.18845 34041 ft 388 kts 276°
2026-05-04 15:08 43.03983 8.11588 34043 ft 388 kts 275°
2026-05-04 15:08 43.04935 8.04331 34040 ft 388 kts 275°
2026-05-04 15:09 43.05831 7.97066 34035 ft 387 kts 275°
2026-05-04 15:09 43.06713 7.89841 34042 ft 388 kts 274°
2026-05-04 15:10 43.08051 7.78898 34032 ft 389 kts 274°
2026-05-04 15:11 43.09394 7.67940 34035 ft 390 kts 274°
2026-05-04 15:11 43.10281 7.60626 34037 ft 390 kts 274°
2026-05-04 15:12 43.11171 7.53297 34041 ft 390 kts 274°
2026-05-04 15:12 43.12051 7.45962 34034 ft 391 kts 274°
2026-05-04 15:13 43.12925 7.38614 34035 ft 391 kts 274°
2026-05-04 15:13 43.13794 7.31258 34035 ft 392 kts 274°
2026-05-04 15:14 43.14665 7.23890 34032 ft 392 kts 274°
2026-05-04 15:14 43.15534 7.16523 34034 ft 392 kts 274°
2026-05-04 15:15 43.16380 7.09197 34036 ft 392 kts 274°
2026-05-04 15:15 43.17227 7.01826 34036 ft 392 kts 274°
2026-05-04 15:16 43.18492 6.90785 34030 ft 391 kts 274°
2026-05-04 15:17 43.19754 6.79729 34052 ft 392 kts 273°
2026-05-04 15:17 43.21003 6.68663 34037 ft 392 kts 273°
2026-05-04 15:18 43.21821 6.61284 34034 ft 392 kts 274°
2026-05-04 15:19 43.23325 6.50230 34047 ft 395 kts 276°
2026-05-04 15:19 43.25056 6.39178 34057 ft 395 kts 276°
2026-05-04 15:20 43.26149 6.31809 34064 ft 395 kts 276°
2026-05-04 15:20 43.27217 6.24425 34059 ft 394 kts 276°
2026-05-04 15:21 43.28286 6.17039 34052 ft 395 kts 276°
2026-05-04 15:22 43.29878 6.05987 34050 ft 396 kts 275°
2026-05-04 15:22 43.31476 5.94834 34024 ft 397 kts 275°
2026-05-04 15:23 43.32535 5.87380 34012 ft 398 kts 275°
2026-05-04 15:23 43.33597 5.79897 34007 ft 399 kts 275°
2026-05-04 15:24 43.35713 5.64935 34003 ft 400 kts 275°
2026-05-04 15:25 43.36750 5.57467 33984 ft 401 kts 275°
2026-05-04 15:26 43.38312 5.46168 33981 ft 402 kts 275°
2026-05-04 15:26 43.39878 5.34854 33985 ft 401 kts 275°
2026-05-04 15:27 43.41426 5.23562 33985 ft 400 kts 275°
2026-05-04 15:28 43.42953 5.12221 33982 ft 403 kts 275°
2026-05-04 15:29 43.44485 5.00849 33981 ft 403 kts 275°
2026-05-04 15:30 43.48017 4.74217 33978 ft 406 kts 274°
2026-05-04 15:31 43.49525 4.62722 33955 ft 407 kts 274°
2026-05-04 15:32 43.52024 4.43475 33952 ft 410 kts 274°
2026-05-04 15:34 43.54493 4.24099 33957 ft 411 kts 274°
2026-05-04 15:34 43.55969 4.12430 33981 ft 412 kts 274°
2026-05-04 15:35 43.57416 4.00789 33962 ft 413 kts 274°
2026-05-04 15:36 43.57607 3.89122 33958 ft 405 kts 263°
2026-05-04 15:36 43.57368 3.81342 33971 ft 407 kts 263°
2026-05-04 15:37 43.57127 3.73550 33983 ft 406 kts 262°
2026-05-04 15:37 43.56895 3.65765 33947 ft 407 kts 263°
2026-05-04 15:38 43.56652 3.57962 33942 ft 408 kts 263°
2026-05-04 15:38 43.56404 3.50143 33939 ft 409 kts 262°
2026-05-04 15:39 43.56149 3.42317 33942 ft 409 kts 262°
2026-05-04 15:40 43.55753 3.30554 33944 ft 410 kts 262°
2026-05-04 15:40 43.55527 3.24026 33947 ft 410 kts 262°
2026-05-04 15:41 43.55250 3.16175 33947 ft 410 kts 262°
2026-05-04 15:41 43.54967 3.08330 33945 ft 410 kts 262°
2026-05-04 15:42 43.54681 3.00468 33969 ft 410 kts 262°
2026-05-04 15:42 43.54389 2.92630 33962 ft 408 kts 262°
2026-05-04 15:43 43.54094 2.84811 33954 ft 408 kts 262°
2026-05-04 15:43 43.53793 2.76997 33950 ft 408 kts 261°
2026-05-04 15:44 43.53486 2.69237 33941 ft 408 kts 261°
2026-05-04 15:44 43.53178 2.61439 33967 ft 407 kts 261°
2026-05-04 15:45 43.52866 2.53664 33950 ft 405 kts 261°
2026-05-04 15:45 43.52547 2.45914 33940 ft 405 kts 261°
2026-05-04 15:46 43.52224 2.38164 33932 ft 405 kts 261°
2026-05-04 15:46 43.51895 2.30422 33926 ft 404 kts 261°
2026-05-04 15:47 43.51557 2.22687 33920 ft 405 kts 261°
2026-05-04 15:47 43.51219 2.14929 33907 ft 406 kts 261°
2026-05-04 15:48 43.50872 2.07198 33906 ft 410 kts 261°
2026-05-04 15:48 43.50326 1.95357 33948 ft 414 kts 261°
2026-05-04 15:49 43.49961 1.87452 33939 ft 413 kts 261°
2026-05-04 15:49 43.49595 1.79540 33914 ft 414 kts 261°
2026-05-04 15:50 43.49219 1.71617 33903 ft 415 kts 261°
2026-05-04 15:50 43.48828 1.63678 33907 ft 416 kts 261°
2026-05-04 15:51 43.48441 1.55720 33908 ft 416 kts 261°
2026-05-04 15:51 43.48048 1.47765 33930 ft 417 kts 259°
2026-05-04 15:52 43.47646 1.39843 33913 ft 418 kts 259°
2026-05-04 15:52 43.47233 1.31862 33915 ft 418 kts 259°
2026-05-04 15:53 43.46812 1.23871 33915 ft 419 kts 259°
2026-05-04 15:53 43.46395 1.15875 33920 ft 418 kts 259°
2026-05-04 15:54 43.45968 1.07892 33949 ft 418 kts 259°
2026-05-04 15:54 43.45531 0.99901 33945 ft 419 kts 259°
2026-05-04 15:55 43.45175 0.91887 33939 ft 421 kts 261°
2026-05-04 15:55 43.45013 0.83827 33942 ft 422 kts 262°
2026-05-04 15:56 43.44867 0.75759 33988 ft 422 kts 262°
2026-05-04 15:56 43.44663 0.67687 33960 ft 422 kts 261°
2026-05-04 15:57 43.44431 0.59609 33956 ft 423 kts 261°
2026-05-04 15:57 43.44193 0.51525 33954 ft 423 kts 261°
2026-05-04 15:58 43.43957 0.43429 33962 ft 423 kts 261°
2026-05-04 15:58 43.43720 0.35345 33997 ft 423 kts 262°
2026-05-04 15:59 43.43472 0.27253 33412 ft 423 kts 262°
2026-05-04 15:59 43.43347 0.23268 32877 ft 423 kts 262°
2026-05-04 15:59 43.43218 0.19218 32348 ft 425 kts 262°
2026-05-04 16:00 43.43087 0.15142 31834 ft 427 kts 262°
2026-05-04 16:00 43.42954 0.11050 31324 ft 429 kts 261°
2026-05-04 16:00 43.42820 0.06939 30826 ft 431 kts 262°
2026-05-04 16:00 43.42687 0.02819 30338 ft 431 kts 262°
2026-05-04 16:01 43.42555 -0.01305 29863 ft 430 kts 262°
2026-05-04 16:01 43.42422 -0.05395 29294 ft 427 kts 262°
2026-05-04 16:01 43.42287 -0.09464 28738 ft 424 kts 262°
2026-05-04 16:01 43.42149 -0.13506 28186 ft 421 kts 262°
2026-05-04 16:02 43.42009 -0.17516 27650 ft 418 kts 262°
2026-05-04 16:02 43.41867 -0.21496 27125 ft 415 kts 262°
2026-05-04 16:02 43.41583 -0.29379 26100 ft 410 kts 262°
2026-05-04 16:03 43.41440 -0.33286 25603 ft 407 kts 262°
2026-05-04 16:03 43.41299 -0.37168 25114 ft 405 kts 262°
2026-05-04 16:03 43.41159 -0.41021 24626 ft 403 kts 263°
2026-05-04 16:03 43.41021 -0.44860 24152 ft 401 kts 263°
2026-05-04 16:04 43.40881 -0.48670 23682 ft 398 kts 263°
2026-05-04 16:04 43.40594 -0.56228 22605 ft 393 kts 263°
2026-05-04 16:04 43.40450 -0.59970 22066 ft 390 kts 263°
2026-05-04 16:05 43.40307 -0.63690 21535 ft 387 kts 263°
2026-05-04 16:05 43.40162 -0.67367 21017 ft 384 kts 263°
2026-05-04 16:05 43.39873 -0.74634 19993 ft 378 kts 263°
2026-05-04 16:06 43.39733 -0.78183 19527 ft 374 kts 263°
2026-05-04 16:06 43.39354 -0.87589 18258 ft 366 kts 263°
2026-05-04 16:07 43.39161 -0.92237 17533 ft 362 kts 264°
2026-05-04 16:07 43.38731 -1.02513 15965 ft 356 kts 264°
2026-05-04 16:08 43.38589 -1.05904 15460 ft 354 kts 264°
2026-05-04 16:08 43.38156 -1.15962 14017 ft 349 kts 265°
2026-05-04 16:09 43.37869 -1.22546 13208 ft 341 kts 265°
2026-05-04 16:09 43.37580 -1.29006 12421 ft 337 kts 265°
2026-05-04 16:10 43.37288 -1.35400 11647 ft 334 kts 265°
2026-05-04 16:11 43.36856 -1.44886 10538 ft 330 kts 265°
2026-05-04 16:11 43.36712 -1.48027 10174 ft 329 kts 265°
2026-05-04 16:12 43.36286 -1.57240 9012 ft 314 kts 266°
2026-05-04 16:12 43.35873 -1.66013 8098 ft 294 kts 266°
2026-05-04 16:13 43.35567 -1.71411 7841 ft 273 kts 261°
2026-05-04 16:13 43.34363 -1.76246 7592 ft 271 kts 243°
2026-05-04 16:14 43.33157 -1.81027 7340 ft 268 kts 271°
2026-05-04 16:14 43.34149 -1.85850 7093 ft 263 kts 301°
2026-05-04 16:15 43.38105 -1.91070 6721 ft 264 kts 320°
2026-05-04 16:16 43.40911 -1.94311 6477 ft 263 kts 321°
2026-05-04 16:16 43.46065 -1.95035 6083 ft 268 kts 28°
2026-05-04 16:17 43.48429 -1.91102 5819 ft 274 kts 59°
2026-05-04 16:18 43.51148 -1.84252 5441 ft 260 kts 59°
2026-05-04 16:18 43.52000 -1.82114 5323 ft 249 kts 59°
2026-05-04 16:19 43.54318 -1.75959 4935 ft 241 kts 75°
2026-05-04 16:19 43.53556 -1.71642 4685 ft 243 kts 129°
2026-05-04 16:20 43.50278 -1.66242 3730 ft 246 kts 141°
2026-05-04 16:20 43.47143 -1.65979 3024 ft 237 kts 213°
2026-05-04 16:21 43.43501 -1.70062 2049 ft 215 kts 224°
2026-05-04 16:22 43.41337 -1.72630 1412 ft 197 kts 221°
2026-05-04 16:22 43.38489 -1.75864 695 ft 156 kts 221°
2026-05-04 16:23 43.36159 -1.78480 46 ft 139 kts 222°
2026-05-04 16:24 43.35083 -1.79732 21 ft 13 kts 233°
2026-05-04 16:25 43.35119 -1.79643 19 ft 13 kts 38°
2026-05-04 16:26 43.35536 -1.79267 18 ft 5 kts 349°
2026-05-04 16:26 43.35654 -1.79058 18 ft 21 kts 37°
2026-05-04 16:27 43.35733 -1.79064 18 ft 0 kts 308°
2026-05-04 16:28 43.35728 -1.79136 18 ft 1 kts 223°
2026-05-04 16:28 43.35727 -1.79138 18 ft 0 kts 223°
2026-05-04 16:30 43.35728 -1.79139 19 ft 0 kts 219°